DW5256 Weather Reports


time (UTC)temp
F
wind
direction
speed
knots
gust
knots
rain 1hr
in
rain 24hr
in
rain mn
in
humidity
%
barometer
mb
20260506195028 71 273 1.7 12.2 0.00 0.00 0.00 59 1015.2
20260506193523 71 273 0.0 9.6 0.00 0.00 0.00 59 1015.3
20260506192022 70 299 5.2 10.4 0.00 0.00 0.00 59 1015.5
20260506190541 70 259 0.9 11.3 0.00 0.00 0.00 58 1015.5
20260506185030 69 331 0.0 8.7 0.00 0.00 0.00 57 1015.6
20260506183545 69 306 2.6 7.8 0.00 0.00 0.00 57 1015.8
20260506182015 68 290 0.9 8.7 0.00 0.00 0.00 59 1016.0
20260506180547 68 311 6.1 8.7 0.00 0.00 0.00 60 1016.3
20260506175036 66 319 0.0 8.7 0.00 0.00 0.00 63 1016.4
20260506173552 66 266 4.3 11.3 0.00 0.00 0.00 63 1016.5
20260506172021 65 281 0.9 8.7 0.00 0.00 0.00 65 1016.6
20260506170517 63 321 0.9 7.8 0.00 0.00 0.00 68 1016.6
20260506165024 63 313 2.6 7.0 0.00 0.00 0.00 68 1016.5
20260506163520 62 347 0.0 4.3 0.00 0.00 0.00 70 1016.5
20260506162017 61 334 0.0 4.3 0.00 0.00 0.00 70 1016.6
20260506160532 61 344 0.0 5.2 0.00 0.00 0.00 71 1016.7
20260506155043 61 355 0.0 2.6 0.00 0.00 0.00 71 1016.6
20260506153534 60 21 0.0 3.5 0.00 0.00 0.00 72 1016.7
20260506152023 59 11 0.0 3.5 0.00 0.00 0.00 73 1016.8
20260506150515 58 360 0.0 2.6 0.00 0.00 0.00 74 1016.8
20260506145028 57 360 0.0 3.5 0.00 0.06 0.00 75 1016.7
20260506143517 56 351 0.0 0.0 0.00 0.06 0.00 77 1016.7
20260506142026 55 351 0.0 2.6 0.00 0.06 0.00 79 1016.6
20260506140533 53 338 0.0 0.0 0.00 0.06 0.00 80 1016.6
20260506135029 54 335 0.0 3.5 0.00 0.06 0.00 80 1016.6
20260506133543 53 325 0.0 0.0 0.00 0.06 0.00 81 1016.3
20260506132027 52 325 0.0 0.0 0.00 0.06 0.00 81 1016.2
20260506130536 52 325 0.0 2.6 0.00 0.06 0.00 81 1016.1
20260506125030 52 319 0.0 0.0 0.00 0.06 0.00 81 1015.8
20260506123547 52 311 0.0 1.7 0.00 0.06 0.00 81 1015.7
20260506122017 52 306 0.0 0.0 0.00 0.06 0.00 81 1015.8
20260506120533 53 302 0.0 0.0 0.00 0.06 0.00 81 1015.8
20260506115048 53 302 0.0 0.0 0.00 0.07 0.00 81 1015.7
20260506113525 53 302 0.0 0.0 0.00 0.07 0.00 81 1015.8
20260506112040 53 302 0.0 0.0 0.00 0.07 0.00 80 1015.7
20260506110518 54 302 0.0 0.0 0.00 0.07 0.00 80 1015.7
20260506105034 54 302 0.0 0.0 0.00 0.07 0.00 81 1015.7
20260506103556 54 302 0.0 0.0 0.00 0.07 0.00 81 1015.6
20260506102030 53 302 0.0 0.0 0.00 0.07 0.00 81 1015.5
20260506100526 53 302 0.0 0.0 0.00 0.07 0.00 80 1015.4
20260506095043 53 302 0.0 0.0 0.00 0.08 0.00 80 1015.3
20260506093519 54 302 0.0 0.0 0.00 0.08 0.00 79 1015.3
20260506092020 54 302 0.0 0.0 0.00 0.08 0.00 79 1015.3
20260506090518 54 302 0.0 0.0 0.00 0.08 0.00 78 1015.5
20260506085047 54 302 0.0 0.0 0.00 0.11 0.00 79 1015.7
20260506083519 54 302 0.0 0.0 0.00 0.11 0.00 79 1015.9
20260506082015 54 302 0.0 0.0 0.00 0.11 0.00 78 1016.0
20260506080532 55 302 0.0 0.0 0.00 0.11 0.00 77 1016.0
20260506072048 55 302 0.0 0.0 0.00 0.18 0.00 77 1016.2
20260506070523 55 302 0.0 0.0 0.00 0.18 0.00 77 1016.3
20260506062030 56 302 0.0 0.0 0.00 0.19 0.18 76 1016.0
20260506060530 56 302 0.0 0.0 0.00 0.19 0.18 76 1016.1
20260506050534 57 302 0.0 0.0 0.00 0.19 0.18 74 1015.9
20260506045025 57 302 0.0 0.0 0.00 0.19 0.18 73 1015.6
20260506043524 58 302 0.0 0.0 0.00 0.19 0.18 73 1015.5
20260506042015 58 302 0.0 0.0 0.00 0.19 0.18 72 1015.4
20260506040538 58 302 0.0 1.7 0.00 0.19 0.18 72 1015.2
20260506035030 58 303 0.0 0.0 0.00 0.19 0.18 72 1015.0
20260506033523 58 292 0.0 3.5 0.00 0.19 0.18 72 1014.8
20260506032023 58 323 0.0 5.2 0.00 0.19 0.18 72 1014.7
20260506030530 59 292 0.0 1.7 0.00 0.19 0.18 71 1014.4
20260506025024 59 306 0.0 8.7 0.00 0.19 0.18 71 1014.2
20260506023522 60 291 0.9 7.8 0.00 0.19 0.18 69 1013.9
20260506022040 60 305 0.9 7.8 0.00 0.19 0.18 67 1013.7
20260506020517 61 301 2.6 9.6 0.00 0.19 0.18 65 1013.5
20260506015014 61 318 1.7 10.4 0.00 0.19 0.18 64 1013.4
20260506013529 62 257 4.3 10.4 0.00 0.19 0.18 64 1013.3
20260506012031 62 248 4.3 10.4 0.00 0.19 0.18 63 1013.3
20260506010528 63 269 1.7 9.6 0.00 0.19 0.18 62 1013.2
20260506005048 64 327 2.6 10.4 0.00 0.19 0.18 61 1013.2
20260506003525 63 261 4.3 11.3 0.00 0.19 0.18 62 1013.1
20260506002046 63 258 0.9 13.0 0.00 0.19 0.18 61 1013.0
20260506000552 65 240 5.2 15.6 0.00 0.19 0.18 56 1013.0
20260505235030 65 263 3.5 11.3 0.00 0.19 0.18 54 1013.0
20260505233528 65 279 7.8 13.9 0.00 0.19 0.18 54 1013.0
20260505232028 65 289 3.5 13.9 0.00 0.19 0.18 54 1013.1
20260505230534 66 310 3.5 13.0 0.00 0.19 0.18 52 1013.1
20260505225032 66 265 6.1 12.2 0.00 0.19 0.18 53 1013.2
20260505223532 65 275 6.1 14.8 0.00 0.19 0.18 56 1013.3
20260505222029 65 257 5.2 13.0 0.00 0.19 0.18 55 1013.4
20260505220529 65 246 4.3 12.2 0.00 0.19 0.18 53 1013.4
20260505215044 66 269 3.5 12.2 0.00 0.19 0.18 56 1013.3
20260505213526 66 261 2.6 10.4 0.00 0.19 0.18 58 1013.5
20260505212022 65 298 2.6 13.0 0.00 0.19 0.18 58 1013.7
20260505210541 65 298 6.1 15.6 0.00 0.19 0.18 58 1013.8
20260505205053 65 276 4.3 10.4 0.00 0.19 0.18 58 1013.8
20260505203529 63 304 3.5 10.4 0.00 0.19 0.18 64 1013.9
20260505202025 63 315 3.5 13.0 0.00 0.19 0.18 64 1013.9
20260505200525 62 326 2.6 10.4 0.00 0.19 0.18 66 1014.0